EN

Hourly Weather Kyzyltu

Today, 25 July, Sunday

Time Temperature Precipitation Wind Pressure Humidity
00:00 +27°C° 0 mm 2 mps 702 mmHg 28%
01:00 +27°C° 0 mm 2 mps 701 mmHg 27%
02:00 +26°C° 0 mm 2 mps 701 mmHg 26%
03:00 +26°C° 0 mm 2 mps 701 mmHg 27%
04:00 +26°C° 0 mm 2 mps 701 mmHg 27%
05:00 +26°C° 0 mm 2 mps 702 mmHg 26%
06:00 +29°C° 0 mm 2 mps 702 mmHg 23%
07:00 +32°C° 0 mm 2 mps 702 mmHg 20%
08:00 +35°C° 0 mm 1 mps 703 mmHg 17%
09:00 +37°C° 0 mm 2 mps 703 mmHg 16%
10:00 +39°C° 0 mm 2 mps 703 mmHg 15%
11:00 +42°C° 0 mm 3 mps 703 mmHg 13%
12:00 +42°C° 0 mm 3 mps 702 mmHg 12%
13:00 +43°C° 0 mm 4 mps 702 mmHg 11%
14:00 +45°C° 0 mm 5 mps 702 mmHg 10%
15:00 +45°C° 0 mm 5 mps 702 mmHg 10%
16:00 +44°C° 0 mm 6 mps 702 mmHg 11%
17:00 +42°C° 0 mm 6 mps 702 mmHg 12%
18:00 +38°C° 0 mm 4 mps 702 mmHg 16%
19:00 +34°C° 0 mm 3 mps 702 mmHg 19%
20:00 +30°C° 0 mm 2 mps 703 mmHg 23%
21:00 +29°C° 0 mm 2 mps 702 mmHg 24%
22:00 +28°C° 0 mm 2 mps 702 mmHg 25%
23:00 +28°C° 0 mm 2 mps 702 mmHg 26%

Tomorrow, 26 July, Monday

Time Temperature Precipitation Wind Pressure Humidity
00:00 +27°C° 0 mm 2 mps 702 mmHg 26%
01:00 +27°C° 0 mm 2 mps 702 mmHg 26%
02:00 +27°C° 0 mm 2 mps 701 mmHg 26%
03:00 +27°C° 0 mm 2 mps 701 mmHg 26%
04:00 +26°C° 0 mm 2 mps 701 mmHg 26%
05:00 +26°C° 0 mm 2 mps 701 mmHg 25%
06:00 +29°C° 0 mm 2 mps 701 mmHg 22%
07:00 +32°C° 0 mm 1 mps 702 mmHg 19%
08:00 +35°C° 0 mm 1 mps 702 mmHg 16%
09:00 +38°C° 0 mm 2 mps 702 mmHg 15%
10:00 +39°C° 0 mm 2 mps 702 mmHg 13%
11:00 +42°C° 0 mm 3 mps 701 mmHg 11%
12:00 +42°C° 0 mm 3 mps 701 mmHg 11%
13:00 +43°C° 0 mm 3 mps 701 mmHg 10%
14:00 +44°C° 0 mm 3 mps 700 mmHg 9%
15:00 +44°C° 0 mm 3 mps 700 mmHg 9%
16:00 +44°C° 0 mm 3 mps 700 mmHg 10%
17:00 +43°C° 0 mm 4 mps 699 mmHg 10%
18:00 +39°C° 0 mm 3 mps 699 mmHg 13%
19:00 +36°C° 0 mm 3 mps 699 mmHg 16%
20:00 +33°C° 0 mm 3 mps 699 mmHg 19%
21:00 +31°C° 0 mm 3 mps 699 mmHg 20%
22:00 +30°C° 0 mm 3 mps 699 mmHg 21%
23:00 +29°C° 0 mm 3 mps 698 mmHg 22%

Day after tomorrow, 27 July, Tuesday

Time Temperature Precipitation Wind Pressure Humidity
00:00 +29°C° 0 mm 3 mps 698 mmHg 22%
01:00 +29°C° 0 mm 3 mps 698 mmHg 23%
02:00 +28°C° 0 mm 3 mps 698 mmHg 23%
03:00 +28°C° 0 mm 3 mps 699 mmHg 25%
04:00 +27°C° 0 mm 3 mps 699 mmHg 26%
05:00 +27°C° 0 mm 3 mps 699 mmHg 27%
06:00 +29°C° 0 mm 4 mps 700 mmHg 28%
07:00 +32°C° 0 mm 4 mps 700 mmHg 30%
08:00 +33°C° 0 mm 4 mps 701 mmHg 31%
09:00 +35°C° 0 mm 4 mps 701 mmHg 29%
10:00 +36°C° 0 mm 5 mps 701 mmHg 28%
11:00 +37°C° 0 mm 5 mps 701 mmHg 26%
12:00 +39°C° 0 mm 5 mps 700 mmHg 26%
13:00 +39°C° 0 mm 5 mps 700 mmHg 25%
14:00 +40°C° 0 mm 5 mps 700 mmHg 24%
15:00 +39°C° 0 mm 6 mps 700 mmHg 25%
16:00 +38°C° 0 mm 6 mps 700 mmHg 26%
17:00 +38°C° 0 mm 6 mps 700 mmHg 27%
18:00 +34°C° 0 mm 4 mps 700 mmHg 32%
19:00 +31°C° 0 mm 3 mps 700 mmHg 37%
20:00 +28°C° 0 mm 2 mps 700 mmHg 41%
21:00 +27°C° 0 mm 2 mps 700 mmHg 43%
22:00 +26°C° 0 mm 2 mps 700 mmHg 44%
23:00 +25°C° 0 mm 1 mps 700 mmHg 45%

28 July, Wednesday

Time Temperature Precipitation Wind Pressure Humidity
00:00 +25°C° 0 mm 1 mps 699 mmHg 45%
01:00 +24°C° 0 mm 1 mps 699 mmHg 45%
02:00 +24°C° 0 mm 1 mps 699 mmHg 45%
03:00 +24°C° 0 mm 1 mps 699 mmHg 45%
04:00 +23°C° 0 mm 1 mps 699 mmHg 45%
05:00 +23°C° 0 mm 1 mps 699 mmHg 45%
06:00 +26°C° 0 mm 1 mps 699 mmHg 39%
07:00 +28°C° 0 mm 2 mps 700 mmHg 34%
08:00 +30°C° 0 mm 2 mps 700 mmHg 28%
09:00 +33°C° 0 mm 3 mps 700 mmHg 25%
10:00 +34°C° 0 mm 4 mps 700 mmHg 23%
11:00 +35°C° 0 mm 4 mps 700 mmHg 20%
12:00 +36°C° 0 mm 5 mps 699 mmHg 19%
13:00 +37°C° 0 mm 5 mps 699 mmHg 18%
14:00 +37°C° 0 mm 5 mps 699 mmHg 17%
15:00 +37°C° 0 mm 5 mps 699 mmHg 17%
16:00 +36°C° 0 mm 5 mps 699 mmHg 17%
17:00 +35°C° 0 mm 5 mps 699 mmHg 17%
18:00 +33°C° 0 mm 4 mps 699 mmHg 20%
19:00 +29°C° 0 mm 3 mps 699 mmHg 23%
20:00 +26°C° 0 mm 2 mps 699 mmHg 25%
21:00 +25°C° 0 mm 2 mps 699 mmHg 27%
22:00 +24°C° 0 mm 2 mps 699 mmHg 29%
23:00 +23°C° 0 mm 2 mps 699 mmHg 31%

29 July, Thursday

Time Temperature Precipitation Wind Pressure Humidity
00:00 +21°C° 0 mm 2 mps 699 mmHg 31%
01:00 +21°C° 0 mm 2 mps 699 mmHg 31%
02:00 +21°C° 0 mm 2 mps 698 mmHg 32%
03:00 +21°C° 0 mm 2 mps 698 mmHg 32%
04:00 +21°C° 0 mm 2 mps 698 mmHg 33%
05:00 +20°C° 0 mm 2 mps 698 mmHg 33%
06:00 +24°C° 0 mm 3 mps 699 mmHg 29%
07:00 +26°C° 0 mm 3 mps 699 mmHg 25%
08:00 +29°C° 0 mm 3 mps 699 mmHg 21%
09:00 +30°C° 0 mm 3 mps 699 mmHg 19%
10:00 +33°C° 0 mm 3 mps 699 mmHg 17%
11:00 +35°C° 0 mm 3 mps 699 mmHg 15%
12:00 +36°C° 0 mm 4 mps 699 mmHg 14%
13:00 +37°C° 0 mm 4 mps 699 mmHg 14%
14:00 +38°C° 0 mm 4 mps 698 mmHg 13%
15:00 +37°C° 0 mm 5 mps 699 mmHg 13%
16:00 +36°C° 0 mm 5 mps 699 mmHg 13%
17:00 +36°C° 0 mm 5 mps 699 mmHg 14%
18:00 +33°C° 0 mm 4 mps 699 mmHg 16%
19:00 +29°C° 0 mm 3 mps 699 mmHg 19%
20:00 +26°C° 0 mm 2 mps 700 mmHg 21%
21:00 +25°C° 0 mm 2 mps 700 mmHg 23%
22:00 +24°C° 0 mm 2 mps 700 mmHg 25%
23:00 +22°C° 0 mm 1 mps 700 mmHg 27%

30 July, Friday

Time Temperature Precipitation Wind Pressure Humidity
00:00 +22°C° 0 mm 1 mps 700 mmHg 28%
01:00 +21°C° 0 mm 2 mps 700 mmHg 28%
02:00 +20°C° 0 mm 2 mps 700 mmHg 29%
03:00 +20°C° 0 mm 2 mps 700 mmHg 30%
04:00 +20°C° 0 mm 2 mps 700 mmHg 31%
05:00 +20°C° 0 mm 2 mps 700 mmHg 33%
06:00 +22°C° 0 mm 3 mps 701 mmHg 28%
07:00 +25°C° 0 mm 3 mps 701 mmHg 23%
08:00 +28°C° 0 mm 4 mps 702 mmHg 19%
09:00 +29°C° 0 mm 4 mps 702 mmHg 17%
10:00 +32°C° 0 mm 5 mps 703 mmHg 15%
11:00 +33°C° 0 mm 6 mps 703 mmHg 12%
12:00 +33°C° 0 mm 6 mps 703 mmHg 14%
13:00 +33°C° 0 mm 7 mps 704 mmHg 15%
14:00 +33°C° 0 mm 8 mps 704 mmHg 16%
15:00 +32°C° 0 mm 7 mps 704 mmHg 20%
16:00 +29°C° 0 mm 7 mps 704 mmHg 23%
17:00 +28°C° 0 mm 6 mps 705 mmHg 27%
18:00 +26°C° 0.1 mm 5 mps 705 mmHg 35%
19:00 +24°C° 0.1 mm 3 mps 706 mmHg 42%
20:00 +22°C° 0.1 mm 1 mps 706 mmHg 50%
21:00 +22°C° 0.2 mm 1 mps 706 mmHg 52%
22:00 +20°C° 0.2 mm 2 mps 706 mmHg 54%
23:00 +20°C° 0.2 mm 2 mps 705 mmHg 56%
Show more